Wind_Speed
52 51 47 44 44 46 49 48 48 51 52 52 54 55 54 56 56 56 53 50 45 40 43 43 38 53 42 33 34 35 31 21 19 17 17 16 20 23 25 24 24 26 25
58 55 52 47 46 45 52 48 48 45 45 48 50 54 57 58 59 57 55 54 48 44 43 40 37 28 36 40 39 37 29 23 20 20 21 21 25 29 28 23 22 24 23
58 52 51 52 50 45 47 44 45 48 49 51 51 54 60 64 64 60 57 54 50 46 46 39 31 35 29 20 33 38 31 28 24 23 25 25 26 29 32 31 23 21 20
56 41 38 44 45 47 49 47 51 54 55 54 55 58 61 62 65 63 60 56 52 47 47 45 41 38 34 40 33 28 34 33 30 27 27 26 23 22 24 24 22 18 17
54 47 41 43 45 50 55 55 55 57 61 65 66 63 62 63 66 65 63 61 57 51 49 44 42 41 41 35 26 35 27 33 33 33 30 28 26 29 21 14 17 18 16
49 45 54 48 48 52 57 64 70 68 67 65 60 62 62 60 63 67 65 64 60 57 54 48 44 44 40 36 35 34 37 41 26 36 37 24 24 29 26 14 14 21 18
52 47 53 58 61 61 66 65 65 64 64 63 62 61 61 61 62 63 64 64 63 62 58 54 49 46 45 41 36 34 38 37 35 17 31 33 23 16 19 16 15 16 19
48 49 49 48 49 52 55 56 59 61 63 64 64 64 65 65 65 65 64 63 63 63 62 58 53 50 47 43 43 42 41 41 31 40 37 22 24 15 17 15 14 15 17
46 48 49 49 48 50 52 56 57 60 63 64 64 66 67 64 65 65 64 67 64 62 61 60 58 54 52 50 47 47 42 42 36 33 42 27 32 20 22 20 13 12 17
46 48 50 50 50 50 51 54 56 59 62 63 64 65 66 64 65 65 65 64 66 63 61 61 58 56 55 54 50 49 48 43 39 40 35 49 40 28 22 24 19 17 17
44 46 47 48 51 52 53 55 56 54 59 54 58 56 55 58 58 61 64 64 63 64 61 59 58 57 55 55 54 51 51 48 43 48 44 42 47 35 28 24 22 20 19
46 45 43 42 42 41 40 41 44 46 48 49 51 51 52 52 51 50 50 50 53 55 58 56 55 56 56 56 55 53 51 50 50 49 43 41 35 29 32 28 28 24 24
40 39 39 40 41 42 42 43 44 46 47 47 49 49 49 50 49 50 49 49 48 48 44 43 41 41 43 50 53 55 55 54 54 49 48 43 49 41 29 33 31 26 24
37 38 38 38 39 39 40 41 41 42 44 44 44 45 46 48 49 48 44 44 44 45 46 45 44 43 41 40 39 41 44 47 52 56 54 48 50 50 38 30 30 28 29
35 35 37 38 38 39 39 40 38 41 41 40 39 38 39 41 45 47 47 45 44 43 41 40 39 41 41 41 42 41 39 38 37 40 45 53 53 53 55 50 48 38 35
34 34 35 35 36 37 36 37 40 40 35 34 34 35 37 39 41 42 45 45 45 45 41 39 37 39 41 42 44 45 46 46 45 44 43 46 50 58 56 53 44 41 41
32 33 33 34 34 33 34 38 38 39 33 33 34 37 38 40 41 40 41 44 45 45 45 44 42 42 42 42 43 44 45 46 47 45 43 45 50 53 60 56 51 44 46
32 32 32 32 31 31 31 33 33 29 31 34 35 34 35 36 34 37 39 41 44 46 47 46 47 45 44 42 41 42 44 46 46 44 41 44 48 54 61 56 54 48 49
31 30 31 31 30 28 29 30 30 28 28 33 34 33 30 30 25 28 29 29 32 34 36 37 41 41 41 41 42 44 45 44 44 42 38 43 47 57 62 57 53 46 49
32 31 29 28 28 28 27 28 29 28 27 29 32 32 31 27 23 24 26 26 28 31 34 35 36 38 40 41 43 44 43 43 44 38 34 40 49 61 63 57 58 50 48
31 31 30 29 27 26 25 27 28 28 26 26 28 31 30 28 26 24 23 27 29 31 32 35 37 37 38 40 42 42 42 42 42 38 36 41 54 55 53 52 58 50 56
34 32 30 28 26 26 24 25 28 28 27 26 25 26 27 30 29 28 27 26 26 27 28 30 32 34 35 36 38 39 38 39 40 39 39 46 61 71 52 56 63 58 56
37 33 30 27 24 23 23 24 25 25 25 25 23 21 20 22 28 33 30 27 28 28 28 29 30 31 31 33 33 33 34 35 39 41 45 62 72 71 29 49 55 59 58
37 32 27 23 20 20 20 20 19 20 21 22 23 23 21 19 22 28 35 30 26 27 25 25 26 28 29 28 27 29 31 35 39 47 57 73 70 45 41 56 52 56 55
27 22 17 15 15 15 14 14 16 19 22 24 24 25 22 20 19 22 28 35 29 25 22 22 22 26 26 25 24 27 30 35 40 50 54 68 73 53 51 55 63 56 46
20 17 13 12 10 9 9 12 16 20 24 25 25 25 24 21 18 18 20 28 31 26 21 20 21 22 23 23 24 27 30 34 42 45 47 54 40 43 44 52 62 60 65
Wind_Direction
240 238 245 254 260 266 268 269 270 275 276 276 277 279 280 281 280 280 282 283 282 281 280 284 288 299 240 237 240 242 243 241 247 254 266 274 272 280 289 287 289 291 296
235 238 248 251 255 258 266 269 270 272 274 278 279 281 282 283 283 282 279 277 278 278 278 281 288 287 248 250 246 239 240 240 244 254 261 267 276 283 286 275 276 284 292
234 236 246 248 250 255 261 267 273 277 274 278 283 284 287 285 283 281 280 278 276 273 274 273 266 267 275 268 270 239 244 245 244 250 261 268 280 283 275 267 269 272 284
234 239 262 258 259 252 253 268 282 276 271 273 278 281 283 284 281 278 276 276 275 270 268 269 264 262 265 270 297 249 250 248 249 249 259 269 272 282 293 267 251 255 271
238 270 259 256 254 258 254 273 278 278 276 274 276 277 278 282 282 278 275 275 274 270 262 260 263 263 260 265 263 263 274 231 253 249 259 267 262 272 285 268 250 256 261
262 262 264 258 264 260 261 270 277 275 275 274 274 272 273 274 274 276 274 274 273 273 270 264 256 257 263 265 258 252 255 274 287 250 257 256 257 262 261 266 283 267 261
275 272 262 259 263 265 264 266 269 269 268 269 271 271 271 270 271 271 271 272 272 270 271 270 266 262 262 258 254 259 259 268 281 255 244 242 240 248 251 254 263 272 260
272 273 272 269 267 267 266 267 268 268 270 271 272 271 269 267 267 268 269 268 269 268 269 269 268 267 264 258 257 255 258 266 268 267 278 211 232 230 249 259 273 280 247
276 275 273 273 271 270 270 271 270 270 270 271 271 271 270 269 268 267 268 269 266 265 265 265 265 265 265 262 259 257 256 259 257 258 207 264 233 244 252 269 281 290 234
279 275 275 274 273 271 272 271 272 271 271 270 270 269 270 269 267 266 264 263 265 264 262 261 261 260 261 260 258 258 258 254 251 247 244 250 245 248 259 262 280 266 259
280 278 276 275 275 274 272 271 269 270 270 272 272 272 271 269 268 265 264 262 260 261 259 257 258 259 258 258 257 255 255 252 246 234 254 263 251 233 246 248 261 271 266
286 284 281 279 277 276 278 278 277 278 277 275 273 272 272 272 270 267 265 263 259 258 258 257 255 255 255 256 255 254 251 251 249 244 243 247 236 224 270 234 245 257 272
286 285 283 281 281 280 279 277 277 275 276 275 274 272 271 270 269 266 264 262 260 259 256 255 253 249 245 246 249 248 248 247 247 247 243 241 239 253 235 227 236 242 260
286 284 283 281 280 280 279 278 277 276 274 272 271 270 270 270 269 267 263 259 257 254 253 251 252 253 249 245 241 242 243 242 239 240 240 236 232 236 220 223 237 242 244
289 288 287 285 284 283 283 283 284 286 279 273 272 272 273 274 270 265 261 258 255 253 251 251 249 250 249 246 243 241 241 240 238 236 236 234 231 238 232 241 247 236 233
295 294 293 291 287 287 286 290 290 292 274 268 271 275 278 280 275 267 260 255 253 250 243 244 246 249 252 250 244 242 241 242 243 243 243 241 234 228 231 228 234 227 224
300 299 297 295 293 291 288 292 294 290 269 269 277 285 285 286 281 272 265 256 250 248 245 246 249 251 254 253 248 244 244 245 249 248 244 241 237 227 223 221 228 224 213
305 302 299 298 298 291 287 296 299 287 270 272 279 284 287 288 278 270 263 255 251 250 248 248 250 248 249 246 246 246 244 246 244 240 243 244 236 225 214 213 219 220 214
309 305 303 302 301 295 290 302 303 294 274 268 272 279 284 284 269 263 259 252 247 243 240 239 241 243 243 243 244 241 243 246 241 236 241 240 228 214 208 203 211 217 214
317 314 308 303 301 300 296 301 307 301 291 278 272 271 276 282 280 263 256 250 246 244 242 238 243 244 241 242 242 242 245 246 239 234 236 233 217 204 204 206 208 212 213
321 315 312 307 303 302 297 303 306 303 300 294 281 276 271 268 269 263 260 254 250 246 246 242 243 241 240 243 243 241 245 240 236 230 225 224 198 196 202 198 207 209 216
322 318 313 307 303 303 301 304 308 310 310 307 300 292 278 265 257 256 254 252 249 247 244 243 243 241 241 238 240 243 243 236 231 224 217 205 193 190 200 199 213 201 212
319 315 312 307 302 303 306 311 314 318 319 319 314 303 291 273 253 248 246 245 246 248 248 246 244 239 238 236 241 245 242 234 225 219 206 201 200 194 202 197 198 205 202
316 312 307 304 302 304 309 315 322 326 328 330 326 318 308 284 264 249 242 239 237 239 242 241 240 233 230 233 240 240 232 225 223 207 200 202 200 203 189 194 189 198 201
317 314 310 305 305 306 316 325 331 330 330 332 333 331 315 300 270 256 245 233 228 228 235 236 235 229 229 232 233 233 225 217 210 201 205 202 200 207 198 198 191 194 203
333 329 323 319 312 323 336 341 344 346 341 335 333 332 327 313 288 259 252 230 221 221 225 228 232 228 227 229 228 225 217 207 200 199 199 204 211 223 188 186 181 193 192
Height
5784 5786 5787 5787 5786 5786 5785 5785 5786 5786 5785 5783 5781 5782 5783 5783 5785 5787 5788 5789 5791 5792 5792 5790 5789 5788 5791 5794 5794 5795 5795 5797 5801 5801 5802 5802 5803 5802 5801 5800 5800 5799 5799
5768 5771 5772 5773 5773 5772 5773 5772 5773 5774 5774 5773 5771 5770 5768 5769 5769 5771 5775 5777 5781 5781 5780 5781 5782 5780 5786 5788 5788 5787 5786 5787 5791 5793 5794 5795 5796 5796 5794 5792 5791 5793 5793
5755 5754 5758 5757 5759 5758 5760 5761 5761 5762 5762 5761 5760 5760 5757 5754 5754 5756 5758 5760 5765 5768 5769 5772 5776 5777 5776 5780 5776 5778 5780 5783 5784 5785 5787 5788 5789 5788 5787 5784 5783 5786 5787
5736 5740 5745 5745 5745 5746 5747 5747 5747 5748 5748 5747 5746 5745 5743 5741 5738 5740 5742 5745 5749 5754 5755 5759 5763 5766 5769 5768 5768 5768 5773 5777 5779 5776 5780 5780 5782 5781 5777 5774 5775 5778 5780
5726 5729 5732 5731 5733 5734 5735 5733 5732 5732 5732 5731 5731 5729 5727 5727 5724 5724 5727 5730 5733 5737 5742 5746 5749 5753 5757 5760 5764 5763 5759 5764 5769 5771 5772 5774 5777 5775 5773 5771 5773 5772 5773
5719 5719 5721 5719 5720 5720 5718 5720 5715 5714 5714 5712 5712 5711 5709 5710 5709 5708 5710 5714 5717 5722 5725 5731 5736 5738 5743 5747 5750 5752 5753 5753 5756 5760 5765 5771 5770 5768 5767 5767 5767 5766 5769
5701 5703 5704 5702 5703 5702 5701 5700 5698 5696 5695 5693 5693 5693 5692 5691 5692 5692 5694 5696 5700 5703 5709 5712 5718 5724 5728 5733 5735 5738 5741 5743 5749 5750 5759 5759 5763 5761 5758 5760 5760 5760 5762
5688 5687 5687 5685 5686 5686 5684 5681 5682 5679 5677 5675 5673 5672 5674 5675 5676 5674 5676 5679 5682 5687 5691 5696 5701 5706 5711 5718 5722 5726 5731 5734 5739 5743 5748 5749 5755 5753 5755 5754 5754 5755 5755
5674 5673 5671 5669 5668 5668 5668 5666 5664 5663 5661 5657 5654 5654 5654 5654 5655 5657 5659 5660 5666 5669 5673 5679 5684 5690 5696 5702 5708 5712 5718 5723 5728 5734 5735 5737 5740 5744 5749 5750 5747 5749 5750
5660 5659 5657 5655 5653 5651 5649 5649 5646 5645 5642 5638 5636 5633 5633 5633 5634 5635 5639 5643 5646 5651 5655 5660 5665 5672 5678 5684 5692 5698 5703 5712 5715 5720 5725 5728 5730 5733 5738 5743 5742 5742 5746
5646 5644 5642 5638 5637 5635 5634 5631 5630 5625 5622 5617 5618 5615 5613 5613 5613 5615 5617 5622 5626 5630 5637 5642 5647 5653 5660 5667 5673 5681 5687 5692 5701 5706 5710 5714 5717 5722 5728 5734 5736 5737 5738
5632 5628 5625 5622 5621 5619 5616 5613 5612 5610 5607 5605 5603 5601 5599 5598 5599 5600 5600 5602 5606 5611 5616 5622 5628 5633 5642 5648 5654 5662 5670 5675 5683 5691 5696 5703 5708 5710 5719 5724 5728 5731 5734
5617 5614 5612 5609 5607 5605 5603 5601 5599 5596 5592 5590 5587 5586 5584 5583 5584 5584 5586 5588 5591 5595 5600 5604 5609 5615 5622 5630 5637 5642 5648 5657 5665 5671 5681 5691 5698 5703 5709 5714 5720 5724 5727
5606 5603 5600 5597 5594 5591 5589 5586 5584 5582 5578 5575 5573 5571 5570 5569 5568 5568 5571 5573 5576 5580 5585 5590 5594 5600 5608 5615 5621 5625 5631 5637 5646 5655 5663 5674 5684 5691 5700 5705 5711 5717 5721
5595 5591 5587 5584 5581 5578 5576 5573 5570 5566 5563 5561 5558 5558 5556 5555 5553 5554 5556 5558 5562 5566 5572 5576 5581 5585 5592 5599 5606 5613 5619 5624 5631 5638 5646 5655 5665 5674 5685 5691 5699 5708 5713
5583 5579 5575 5571 5568 5565 5563 5560 5555 5553 5549 5547 5546 5545 5543 5541 5540 5540 5541 5543 5547 5552 5558 5564 5569 5572 5577 5584 5591 5598 5605 5611 5618 5625 5632 5640 5648 5657 5666 5679 5686 5695 5703
5573 5569 5565 5560 5557 5554 5551 5548 5545 5539 5536 5535 5533 5530 5529 5528 5525 5525 5526 5529 5534 5539 5545 5551 5556 5561 5565 5569 5575 5582 5589 5596 5602 5609 5615 5622 5630 5639 5650 5663 5671 5682 5692
5564 5560 5555 5551 5547 5544 5541 5538 5533 5529 5527 5524 5522 5521 5518 5515 5512 5511 5512 5515 5519 5524 5530 5536 5540 5545 5550 5555 5561 5567 5573 5580 5585 5591 5598 5604 5612 5621 5633 5646 5659 5668 5679
5555 5551 5546 5541 5537 5533 5531 5527 5523 5519 5517 5516 5514 5511 5509 5505 5502 5501 5501 5504 5507 5511 5516 5522 5525 5530 5535 5541 5547 5552 5558 5563 5569 5576 5582 5587 5594 5603 5618 5634 5647 5657 5667
5546 5541 5537 5533 5528 5524 5521 5518 5513 5509 5506 5504 5503 5502 5500 5497 5494 5493 5494 5497 5500 5503 5507 5511 5514 5518 5522 5527 5532 5538 5543 5548 5553 5560 5568 5573 5580 5591 5605 5614 5631 5646 5656
5540 5534 5528 5524 5520 5516 5513 5509 5505 5501 5497 5494 5491 5490 5489 5489 5487 5487 5487 5488 5491 5494 5497 5500 5503 5507 5511 5515 5519 5524 5529 5534 5539 5546 5554 5561 5570 5583 5595 5609 5624 5633 5643
5531 5525 5521 5516 5512 5509 5505 5501 5497 5493 5489 5485 5482 5479 5477 5478 5478 5478 5479 5480 5482 5484 5487 5490 5493 5496 5500 5504 5508 5513 5517 5522 5529 5535 5544 5553 5559 5569 5582 5596 5606 5611 5630
5521 5516 5512 5508 5504 5501 5498 5494 5491 5486 5482 5477 5473 5469 5466 5465 5465 5467 5469 5471 5473 5475 5478 5480 5483 5486 5490 5494 5498 5501 5506 5511 5518 5524 5533 5541 5547 5557 5566 5577 5589 5605 5620
5512 5507 5503 5500 5497 5494 5492 5489 5485 5481 5476 5471 5466 5461 5458 5455 5454 5455 5458 5461 5464 5467 5469 5471 5474 5477 5481 5485 5488 5491 5495 5500 5506 5514 5522 5530 5542 5552 5561 5576 5583 5596 5608
5504 5500 5497 5494 5492 5490 5488 5485 5481 5477 5471 5466 5460 5455 5450 5447 5446 5445 5446 5450 5455 5459 5462 5464 5466 5469 5473 5476 5479 5482 5486 5491 5498 5506 5514 5525 5535 5547 5558 5565 5578 5589 5601
5500 5496 5493 5490 5488 5487 5485 5482 5477 5472 5466 5460 5455 5449 5444 5439 5436 5436 5436 5439 5446 5451 5456 5458 5460 5463 5466 5470 5472 5474 5479 5485 5492 5501 5513 5526 5534 5540 5547 5556 5568 5583 5594